Simultaneous Nadir Overpasses (SNOs) Predictions

Prediction of SNOs between GOES-14 and AQUA Satellite Orbit:

Table of predicted SNOs for the next 14.0 days since TLE Epoch: 8/28/2020
Index Date Time (GOES-14) GOES-14 Lat,Lon AQUA Lat,Lon Distance(km) Time Diff (sec)
1 08/29/2020 08:35:46 0.40,-104.45 0.43,-104.62 18.75 80
2 08/31/2020 08:20:55 0.40,-104.44 -0.22,-101.67 315.83 80
3 08/31/2020 20:42:20 -0.39,-104.56 -0.87,-106.87 261.51 80
4 09/02/2020 20:32:48 -0.39,-104.56 -0.28,-103.90 74.21 80
5 09/04/2020 20:20:37 -0.39,-104.56 0.38,-100.95 410.37 80
6 09/05/2020 08:41:52 0.38,-104.45 0.72,-106.11 187.47 80
7 09/07/2020 08:27:00 0.39,-104.45 0.12,-103.14 148.04 80
8 09/07/2020 20:48:25 -0.38,-104.53 -1.20,-108.34 433.39 80
9 09/09/2020 08:14:49 0.38,-104.44 -0.54,-100.19 483.45 80
10 09/09/2020 20:36:14 -0.37,-104.53 -0.53,-105.39 97.50 80
